STARLINK-5683, 55452

Orbit data source: Space-Track

STARLINK-5683, 55452 is a payload satellite owned by SpaceX/Seattle (US) in LEO that was launched on Thu, 02 Feb 2023 UTC via an FALCON 9 launch vehicle from the Air Force Eastern Test Range (AFETR). Payload-class satellites include a variety of spacecraft equipped with specific instruments for various scientific and technological missions. These include communications satellites like Starlink; space stations such as the ISS; scientific satellites like the Hubble; Earth observation satellites from companies like Planet Labs, Umbra, and HawkEye 360; GPS; miniature CubeSats for education and research; and military/defense satellites.

Loading next visibility...
Identifier
55452, 2023-015D
Orbit
LEO
Country
Flag of USUS
Related business
Manufacturer
SpaceX/Seattle
Mission
Operational Commercial Communications
Bus & Motor
STARLINK, Unknown motor
Mass
305 kg wet, ~290 kg dry
Launch date (UTC)
2023-02-02 (4 years ago)
Launch vehicle
FALCON 9
Launch site
Air Force Eastern Test Range (AFETR)
Object type
Payload
Rocket body
Debris
Shape & HBR
Box + 1 Pan, 10.1 m
Radar Cross Section
13.562 m², Large (>1 m²)

Expand to show TLE details & history
Last TLE update: 5 hours ago

TLE from 5 hours ago
0 STARLINK-5683
1 55452U 23015D   26258.48676123  .00000910  00000-0  42584-4 0  9999
2 55452  43.0054 337.3097 0001933 279.0537  81.0096 15.27582111199747
Epoch: 2026-09-15T11:40Z
TLE epoch observation values (Epoch: 2026-09-15T11:40:56.170Z)
Latitude
-0.00001°
Longitude
167.62364°
Altitude
482.612 km
Speed
7.626 km/s
True Right ascension
22h 29m 14s
True Declination
0° 00' 00"
Sunlit
Object was in full shadow at epoch
Visualization orbit readout
Latitude
Unknown
Longitude
Unknown
Altitude
Unknown
Speed
Unknown
Apparent Right ascension
Unknown
Apparent Declination
Unknown
Sunlit
N/A
Visualization observer readout
Local Sidereal Time
09:26:12
Azimuth
Unknown
Elevation
Unknown
Doppler factor
Unknown
Orbital elements
Apogee altitude
486.314 km
Perigee altitude
483.66 km
Semi-major axis
6,863.124 km
Eccentricity
0.00019
Inclination
43.0054°
RAAN
337.3097°
Arg. of periapsis
279.0537°
True anomaly
81.03148°
Mean anomaly
81.0096°
Eccentric anomaly
81.02054°
Mean motion
3.81734 °/min
Orbital period
94.31 mins
BSTAR
0.000042584
Loading maneuver chart data...
Computing Atmospheric mass density...
Loading historical data...
Loading historical data...
Loading historical data...
Loading historical data...
Loading historical data...
Loading historical data...
Loading historical data...

Documentation

Showing up to 5 results
|